Location: Unspecified
(0.0000°N, 0.0000°E)
Time: 06:58:51
(UTC+00:00)

Vanguard 2 Rocket - All Passes

Search period start: 27 September 2016 00:00
Search period end: 07 October 2016 00:00
Orbit: 556 x 3327 km, 32.9° (Epoch: 26 September)

Date Brightness Start Highest point End Pass type
(mag) Time Alt. Az. Time Alt. Az. Time Alt. Az.
27 Sep - 02:10:45 10° SW 02:30:39 56° SSE 02:45:31 10° ENE visible
27 Sep - 04:29:58 10° WSW 04:48:37 66° NW 05:00:01 10° NE visible
27 Sep - 06:55:39 10° WNW 07:03:58 18° NW 07:10:04 10° N daylight
27 Sep - 13:52:48 10° NNE 13:54:21 12° NE 13:56:02 10° ENE daylight
27 Sep - 16:02:06 10° WNW 16:06:59 72° SSW 16:15:13 10° SE daylight
27 Sep - 18:16:54 10° WSW 18:22:41 21° SSW 18:31:05 10° SSE visible
27 Sep - 20:36:30 10° SSW 20:42:39 14° S 20:50:04 10° SSE visible
27 Sep - 22:53:50 10° SSW 23:06:05 21° SSE 23:19:39 10° ESE visible
28 Sep - 01:09:32 10° SW 01:28:19 44° SSE 01:44:25 10° E visible
28 Sep - 03:27:16 10° SW 03:47:34 87° NW 04:00:54 10° NE visible
28 Sep - 05:50:13 10° W 06:03:48 31° NW 06:12:43 10° NNE daylight
28 Sep - 15:03:41 10° NW 15:07:58 61° NE 15:14:28 10° ESE daylight
28 Sep - 17:17:04 10° WSW 17:22:16 26° SSW 17:30:11 10° SSE daylight
28 Sep - 19:35:41 10° SSW 19:40:31 13° S 19:46:26 10° SSE visible
28 Sep - 21:53:46 10° SSW 22:02:55 17° SSE 22:13:39 10° SE visible
29 Sep - 00:08:50 10° SSW 00:25:39 35° SSE 00:42:07 10° E visible
29 Sep - 02:25:17 10° SW 02:45:56 74° SE 03:01:08 10° ENE visible
29 Sep - 04:45:55 10° WSW 05:03:20 47° NW 05:14:29 10° NNE visible
29 Sep - 07:16:14 10° NW 07:19:24 11° NW 07:22:11 10° NNW daylight
29 Sep - 14:05:44 10° NNW 14:09:13 27° NE 14:13:37 10° E daylight
29 Sep - 16:17:43 10° W 16:22:23 36° SSW 16:29:42 10° SE daylight
29 Sep - 18:34:55 10° SW 18:39:07 14° S 18:44:23 10° SSE visible
29 Sep - 20:54:06 10° SSW 21:00:02 13° S 21:06:59 10° SSE visible
29 Sep - 23:08:39 10° SSW 23:22:50 27° SSE 23:38:23 10° ESE visible
30 Sep - 01:23:57 10° SW 01:43:50 59° SE 02:00:35 10° ENE visible
30 Sep - 03:42:35 10° WSW 04:02:23 65° NW 04:15:40 10° NE visible
30 Sep - 06:08:19 10° W 06:18:52 21° NW 06:26:31 10° N daylight
30 Sep - 13:08:51 10° NNE 13:10:20 12° NE 13:11:52 10° ENE daylight
30 Sep - 15:18:46 10° WNW 15:23:02 59° SSW 15:29:29 10° SE daylight
30 Sep - 17:34:23 10° SW 17:38:22 15° SSW 17:43:32 10° SSE daylight
30 Sep - 19:55:04 10° S 19:57:39 11° S 20:00:30 10° SSE visible
30 Sep - 22:08:57 10° SSW 22:20:00 20° SSE 22:33:01 10° ESE visible
01 Oct - 00:23:13 10° SW 00:41:26 46° SSE 00:59:02 10° E visible
01 Oct - 02:40:09 10° SW 03:00:54 84° NW 03:16:14 10° NE visible
01 Oct - 05:02:48 10° W 05:18:11 33° NW 05:28:41 10° NNE visible
01 Oct - 14:20:09 10° NW 14:24:06 69° NE 14:29:23 10° ESE daylight
01 Oct - 16:34:16 10° WSW 16:38:09 19° SSW 16:43:26 10° SSE daylight
01 Oct - 21:09:54 10° SSW 21:17:18 15° SSE 21:26:07 10° SE visible
01 Oct - 23:23:05 10° SSW 23:38:56 36° SSE 23:56:14 10° E visible
02 Oct - 01:38:32 10° SW 01:58:58 77° SE 02:16:07 10° ENE visible
02 Oct - 03:58:35 10° WSW 04:17:10 48° NW 04:30:07 10° NNE visible
02 Oct - 06:28:05 10° WNW 06:34:28 14° NNW 06:39:41 10° N daylight
02 Oct - 13:21:54 10° NNW 13:25:21 29° NE 13:29:12 10° E daylight
02 Oct - 15:34:37 10° W 15:38:27 27° SSW 15:43:44 10° SSE daylight
02 Oct - 20:12:31 10° S 20:14:54 11° SSE 20:17:28 10° SSE visible
02 Oct - 22:23:29 10° SSW 22:36:28 27° SSE 22:51:55 10° ESE visible
03 Oct - 00:37:39 10° SW 00:56:45 61° SE 01:15:09 10° ENE visible
03 Oct - 02:55:30 10° WSW 03:15:44 64° NW 03:30:56 10° NE visible
03 Oct - 05:20:52 10° W 05:33:26 23° NW 05:42:39 10° NNE visible
03 Oct - 12:24:15 10° N 12:26:23 14° NNE 12:28:26 10° ENE daylight
03 Oct - 14:35:22 10° WNW 14:39:12 45° SSW 14:44:16 10° SE daylight
03 Oct - 21:24:33 10° SSW 21:34:06 19° SSE 21:45:54 10° ESE visible
03 Oct - 23:37:25 10° SW 23:54:28 48° SE 00:13:08 10° ENE visible
04 Oct - 01:53:27 10° WSW 02:13:52 82° NW 02:31:08 10° NE visible
04 Oct - 04:15:29 10° W 04:32:11 34° NW 04:44:22 10° NNE visible
04 Oct - 13:36:25 10° NW 13:40:21 81° NE 13:44:48 10° ESE daylight
04 Oct - 15:51:55 10° SW 15:54:11 13° SSW 15:56:49 10° S daylight
04 Oct - 20:26:42 10° S 20:31:56 13° SSE 20:38:03 10° SE visible
04 Oct - 22:37:47 10° SSW 22:52:17 36° SSE 23:09:50 10° E visible
05 Oct - 00:52:16 10° SW 01:11:45 80° SE 01:30:36 10° ENE visible
05 Oct - 03:11:32 10° WSW 03:30:38 48° NW 03:45:23 10° NE visible
05 Oct - 05:40:19 10° WNW 05:49:15 16° NNW 05:56:22 10° N daylight
05 Oct - 12:37:44 10° NNW 12:41:35 34° NE 12:45:13 10° E daylight
05 Oct - 14:51:33 10° WSW 14:54:35 19° SSW 14:58:14 10° SSE daylight
05 Oct - 21:38:46 10° SSW 21:50:16 26° SSE 22:05:00 10° E visible
05 Oct - 23:51:50 10° SW 00:09:34 63° SE 00:29:11 10° ENE visible
06 Oct - 02:08:51 10° WSW 02:28:45 63° NW 02:45:48 10° NE visible
06 Oct - 04:33:31 10° W 04:47:39 25° NNW 04:58:27 10° NNE visible
06 Oct - 11:39:16 10° NNW 11:42:29 18° NNE 11:45:17 10° ENE daylight
06 Oct - 13:51:48 10° W 13:55:27 35° SSW 13:59:31 10° SE daylight
06 Oct - 20:40:33 10° S 20:48:28 17° SSE 20:58:27 10° ESE visible
06 Oct - 22:52:05 10° SW 23:07:33 48° SE 23:26:42 10° ENE visible
